This demonstration page uses our WeatherBlox Daily Observations layout. Learn more.

39.92423, -83.80882

Hourly Observations for April 20, 2017

Temp ( °F °C ) Dew Point ( °F °C ) Humidity (%) Winds ( mph kmh ) Pressure ( in mb ) Visibility ( mi km ) Precip ( " mm )
12:56 am 00:56 Clear 65 18.3 58 14.4 78 78 SSW 5 7 30.07 1018 10 16.0934 0 0
1:56 am 01:56 Clear 64 17.8 58 14.4 81 81 S 6 9 30.06 1018 10 16.0934 0 0
2:56 am 02:56 Clear 63 17.2 57 13.9 81 81 S 5 7 30.05 1018 10 16.0934 0 0
3:56 am 03:56 Clear 63 17.2 58 14.4 84 84 SSW 7 11 30.05 1018 10 16.0934 0 0
4:56 am 04:56 Clear 63 17.2 59 15 87 87 SSW 8 13 30.04 1017 10 16.0934 0 0
5:56 am 05:56 Clear 63 17.2 59 15 87 87 SSW 7 11 30.03 1017 10 16.0934 0 0
6:56 am 06:56 Partly Cloudy 62 16.7 59 15 90 90 SSW 10 17 30.03 1017 10 16.0934 0 0
7:56 am 07:56 Mostly Sunny 64 17.8 60 15.6 87 87 SW 12 19 30.03 1017 10 16.0934 0 0
8:56 am 08:56 Sunny 68 20 61 16.1 78 78 SW 13 20 30.03 1017 10 16.0934 0 0
9:56 am 09:56 Sunny 72 22.2 60 15.6 66 66 SW 17 28 30.01 1016 10 16.0934 0 0
10:56 am 10:56 Sunny 76 24.4 57 13.9 52 52 SW 23 37 29.99 1016 10 16.0934 0 0
11:56 am 11:56 Sunny 78 25.6 58 14.4 50 50 WSW 23 37 29.98 1015 10 16.0934 0 0
12:56 pm 12:56 Partly Cloudy 78 25.6 59 15 52 52 SW 25 41 29.97 1015 10 16.0934 0 0
1:56 pm 13:56 Mostly Cloudy 80 26.7 59 15 49 49 WSW 18 30 29.94 1014 10 16.0934 0 0
2:56 pm 14:56 Partly Cloudy 80 26.7 58 14.4 47 47 SW 23 37 29.9 1013 10 16.0934 0 0
3:56 pm 15:56 Mostly Sunny 79 26.1 58 14.4 49 49 SW 22 35 29.88 1012 10 16.0934 0 0
4:49 pm 16:49 Windy with Storms Likely 72 22 57 14 61 61 WNW 21 33 29.88 1012 10 16.0934 0 0.0254
4:56 pm 16:56 Mostly Cloudy with Light Thunderstorms 68 20 60 15.6 76 76 WNW 10 17 29.9 1012 10 16.0934 0.01 0.254
5:56 pm 17:56 Mostly Cloudy 66 18.9 61 16.1 84 84 SSW 6 9 29.89 1012 10 16.0934 0.26 6.604
6:56 pm 18:56 Sunny 67 19.4 63 17.2 87 87 SSW 10 17 29.89 1012 10 16.0934 0 0
7:56 pm 19:56 Sunny 68 20 63 17.2 84 84 SW 15 24 29.86 1011 10 16.0934 0 0.0254
8:56 pm 20:56 Partly Cloudy 68 20 62 16.7 81 81 WSW 10 17 29.88 1012 10 16.0934 0 0
9:56 pm 21:56 Mostly Cloudy 67 19.4 63 17.2 87 87 SW 14 22 29.86 1011 10 16.0934 0.05 1.27
10:56 pm 22:56 Mostly Cloudy 67 19.4 62 16.7 84 84 SW 14 22 29.85 1011 10 16.0934 0 0
11:56 pm 23:56 Cloudy with Light Rain 66 18.9 63 17.2 90 90 WSW 14 22 29.88 1012 10 16.0934 0 0.0254

Powered by AerisWeather